Temperature
18 18 18 18 18 18 18 18 18 18 18 18 18 18 18 18 18 18 18 18 18 18 18 18 18 18 19 19 19 19 18 18 18 18 18 18 18 18 18 18 18 18 19
18 17 18 18 18 18 18 18 18 18 18 18 18 18 18 18 18 18 18 18 18 18 18 18 18 18 18 18 18 18 18 18 18 18 18 18 18 18 18 18 18 18 18
18 17 18 18 18 18 18 18 18 18 18 18 18 18 18 18 18 18 18 18 18 18 18 18 18 18 18 18 18 18 18 18 18 18 18 17 17 18 18 18 18 18 18
18 17 17 18 18 18 18 18 18 18 18 17 17 17 17 17 17 17 17 17 17 17 17 17 18 18 18 18 18 18 18 18 18 18 17 17 17 18 18 18 18 18 18
17 17 17 18 18 18 18 17 17 17 17 17 17 17 17 17 17 17 17 17 17 17 17 17 17 17 18 18 18 18 18 18 18 18 17 17 17 18 18 18 18 18 18
17 17 17 18 18 17 17 17 17 17 17 17 17 17 17 17 17 17 17 17 17 17 17 17 17 17 17 17 17 17 18 18 18 17 17 17 17 18 18 18 18 18 18
18 17 17 18 17 17 17 17 17 17 16 16 16 16 16 16 16 16 16 16 17 17 17 17 17 17 17 17 17 17 17 18 17 17 17 17 17 18 18 18 18 18 18
18 17 17 17 17 17 17 17 16 16 16 16 16 16 16 16 16 16 16 16 16 16 16 17 17 17 17 17 17 17 17 17 17 17 17 17 17 18 18 18 18 18 18
18 17 17 17 17 17 17 16 16 16 15 15 15 15 15 15 15 16 16 16 16 16 16 16 16 16 17 17 17 17 17 17 17 17 17 17 17 18 18 18 18 18 18
18 18 17 17 17 16 16 16 16 16 15 15 15 15 15 15 15 15 15 15 15 15 15 15 16 16 16 16 16 17 17 17 17 17 17 17 17 18 17 17 18 18 18
18 18 17 17 17 16 16 16 16 15 15 15 15 15 15 15 15 15 15 15 15 15 15 15 15 16 16 16 16 17 17 16 17 17 17 17 18 17 17 17 17 18 18
19 18 18 18 17 17 16 16 15 15 15 15 15 15 15 15 15 15 15 15 15 15 15 15 15 15 16 16 16 16 16 16 17 17 17 17 17 17 17 17 17 17 17
19 19 18 18 17 17 16 16 16 15 15 15 15 14 15 15 15 15 15 15 15 15 15 15 15 15 15 15 15 16 16 16 17 17 17 17 17 17 17 17 17 17 17
19 19 18 18 18 17 17 16 16 16 15 15 15 14 15 15 14 15 14 14 14 14 14 14 15 15 15 15 15 16 16 16 16 16 17 17 17 17 17 17 17 17 17
19 19 18 18 18 17 17 16 16 15 15 15 14 14 14 14 14 14 14 14 14 14 14 14 15 15 15 15 15 15 15 16 16 16 16 17 17 17 17 17 17 17 17
19 19 19 18 17 17 17 16 16 16 15 15 14 14 14 14 14 14 14 14 14 14 14 14 14 14 15 15 15 15 15 16 16 16 16 16 17 17 17 17 17 17 17
20 19 19 18 18 17 17 16 16 15 15 15 14 14 14 14 14 14 14 14 14 14 14 14 14 14 14 15 15 15 15 15 16 16 16 16 16 17 17 17 17 17 17
20 19 19 18 18 17 17 16 16 15 15 15 14 14 14 14 14 13 13 14 13 13 14 14 14 14 14 14 15 15 15 15 15 15 16 16 16 16 16 17 17 17 17
20 19 19 19 18 17 17 16 16 15 15 14 14 14 14 14 13 13 13 13 13 13 13 14 14 14 14 14 15 15 15 15 15 15 15 16 16 16 16 16 17 17 17
20 19 19 19 18 18 17 16 16 15 15 14 14 13 13 13 13 13 13 13 13 13 13 13 13 14 14 14 15 15 15 15 15 15 15 16 16 16 16 16 16 16 17
20 20 19 19 18 18 17 16 16 15 15 14 14 13 13 13 13 13 13 13 13 13 13 13 13 14 14 14 14 15 15 15 15 15 15 15 16 16 16 16 16 16 16
20 20 19 19 18 18 17 17 16 15 15 14 14 13 13 13 13 13 13 13 13 13 13 13 13 13 14 14 14 15 15 15 15 15 15 15 15 15 16 16 16 16 16
20 20 19 19 19 18 18 17 16 15 15 14 14 14 13 13 13 13 12 12 12 13 13 13 13 13 14 14 14 14 15 16 15 15 15 15 15 15 15 16 16 16 16
20 20 19 19 18 18 18 17 16 16 15 15 14 14 13 13 13 13 12 12 12 13 13 13 13 13 13 14 14 14 14 14 15 15 15 15 15 15 15 15 15 16 16
20 20 20 19 19 18 18 17 16 16 15 15 14 14 14 13 13 13 13 12 12 13 13 13 13 13 13 13 14 14 14 14 15 15 15 14 15 15 15 15 15 15 16
21 21 20 19 19 18 18 17 16 16 15 15 14 14 14 14 13 13 13 13 12 12 12 13 13 13 13 13 13 14 14 14 14 15 15 14 14 14 15 15 15 15 16
Wind_Speed
7 8 10 9 9 9 8 8 8 7 7 7 6 6 5 5 4 4 3 3 3 3 3 3 3 4 4 3 4 4 4 4 5 4 4 4 4 5 5 4 3 6 9
9 10 10 9 9 8 8 7 7 7 6 6 6 5 5 4 3 3 2 2 2 2 2 2 2 3 2 2 3 3 3 4 4 4 3 1 3 4 4 4 6 7 7
10 10 10 8 8 8 8 7 7 6 6 6 5 4 4 3 3 2 2 2 2 1 1 1 1 2 2 2 3 3 3 3 3 3 4 2 3 4 2 3 4 5 5
10 9 9 9 8 8 7 7 6 6 6 5 5 4 4 3 3 3 2 2 3 3 3 3 2 2 3 3 3 3 3 3 3 5 5 1 1 5 1 1 2 3 4
9 9 10 8 8 7 7 7 6 6 6 5 4 4 4 4 3 3 4 4 4 4 4 4 4 4 4 4 4 4 4 3 4 7 3 2 1 4 1 0 1 2 3
9 9 10 7 7 7 7 6 6 6 6 5 5 4 4 4 4 4 4 5 5 5 5 5 5 5 5 5 4 4 4 4 7 4 3 3 1 3 1 1 1 1 2
9 8 9 8 7 7 7 6 6 6 5 5 5 4 5 5 5 5 5 5 5 6 6 6 6 6 6 5 5 5 4 5 7 4 4 3 1 2 2 2 2 2 1
8 7 9 8 6 6 6 6 6 5 5 5 5 4 5 5 5 5 5 5 5 6 6 6 6 6 6 6 6 6 5 7 7 5 4 4 2 1 3 3 2 2 2
7 6 6 7 8 7 5 5 4 4 4 5 5 5 5 5 5 6 6 6 6 6 6 5 6 6 6 6 7 6 5 5 8 6 6 4 2 2 3 3 3 3 3
7 5 4 4 4 4 5 5 3 3 4 4 4 5 4 2 1 2 5 4 6 6 6 6 6 5 5 6 6 6 5 7 8 7 6 2 2 3 3 4 4 4 4
6 5 4 4 3 2 1 3 1 1 2 1 1 2 4 4 4 3 5 6 6 6 6 5 5 5 6 6 6 5 7 7 5 6 6 1 2 5 5 4 4 5 5
7 6 4 4 3 2 0 0 1 1 1 3 5 4 4 5 5 6 1 2 4 5 5 3 5 7 8 6 6 8 7 7 6 5 4 1 4 6 5 5 5 5 6
6 5 4 4 3 1 1 2 2 2 2 2 3 3 4 4 4 4 5 2 3 5 5 3 6 5 5 4 5 5 5 6 5 5 2 1 4 5 5 5 6 6 6
6 5 4 4 3 2 1 1 2 2 2 3 3 4 4 4 5 5 4 5 5 4 5 6 5 5 6 6 6 6 5 5 5 4 2 1 3 4 5 5 6 7 7
6 5 5 4 3 1 1 1 2 2 3 2 3 4 5 5 5 5 5 4 5 6 5 5 6 5 6 6 5 5 5 6 5 5 3 3 3 3 3 4 6 7 7
7 6 5 5 4 2 2 2 1 2 1 2 2 3 5 5 5 5 5 5 5 5 5 6 6 5 5 5 5 5 5 5 5 5 5 4 4 2 2 2 4 6 7
7 6 6 5 4 3 1 1 1 1 2 2 2 4 4 5 6 6 6 6 6 6 6 6 6 5 5 4 5 5 4 4 4 5 5 4 4 5 4 4 3 4 5
7 7 6 5 4 3 2 1 0 1 1 2 2 4 5 6 6 6 5 6 6 6 5 5 5 5 4 4 4 3 3 3 3 4 4 3 3 3 5 5 4 3 3
8 7 7 7 5 4 3 2 1 1 1 2 2 3 5 6 7 6 5 5 6 5 5 5 4 5 4 4 4 3 2 2 2 3 3 3 2 2 3 5 5 4 4
8 8 8 7 6 5 4 2 2 1 2 1 2 2 4 5 6 6 5 6 7 5 5 5 5 4 4 3 3 2 2 2 2 2 2 2 2 3 3 3 5 6 6
9 9 9 9 8 6 4 3 2 2 2 2 1 2 3 4 5 5 5 6 6 6 6 6 5 4 3 2 2 2 3 3 2 2 2 2 2 2 2 3 3 4 6
10 10 10 10 8 7 4 2 1 1 2 2 2 2 2 4 5 5 6 6 6 5 6 6 5 4 3 2 2 2 3 3 3 2 2 2 1 1 2 3 3 4 5
10 10 9 9 9 8 6 3 2 2 2 2 2 2 2 3 4 5 6 6 6 6 5 5 5 4 3 2 1 2 2 1 2 2 2 2 1 1 1 2 2 3 5
9 8 9 9 9 8 7 5 4 3 3 2 2 2 2 2 3 4 5 5 6 5 5 5 5 4 4 3 1 2 2 2 1 2 2 2 2 1 1 1 2 2 3
6 7 8 8 8 8 7 6 5 4 3 2 2 2 3 2 3 3 4 4 5 4 5 5 5 5 3 3 2 2 2 2 2 1 2 3 2 1 1 0 1 1 1
4 6 7 8 8 8 7 7 7 5 4 3 3 3 3 2 2 2 3 4 4 4 4 5 4 4 4 3 3 2 2 2 2 1 1 3 2 1 1 1 0 0 1
Wind_Direction
134 128 122 126 122 119 116 114 111 108 106 104 104 102 100 100 102 101 97 93 90 77 63 49 40 42 40 40 40 43 40 37 35 35 37 40 50 54 47 38 24 68 59
133 128 123 125 122 119 115 111 107 104 100 97 98 100 96 89 88 84 70 68 70 62 51 39 25 15 9 13 19 25 26 23 20 18 8 45 86 55 44 38 27 53 56
129 126 129 123 121 117 113 107 100 95 90 85 82 79 79 74 64 56 36 9 356 351 338 344 358 342 335 340 350 355 5 1 1 353 289 261 109 93 51 52 64 62 59
126 124 116 117 115 110 106 102 95 87 79 74 69 60 53 46 35 18 4 354 343 333 323 323 323 319 314 316 320 323 332 334 334 299 270 347 58 88 57 56 83 75 64
125 120 113 118 112 107 102 97 89 81 73 65 57 49 42 31 18 6 355 344 335 327 322 318 315 310 303 303 305 308 316 319 309 275 303 322 356 78 357 251 124 103 78
126 120 115 117 109 103 96 87 77 71 65 60 53 42 32 18 2 352 343 339 332 323 317 315 314 308 299 299 296 301 305 305 277 277 292 291 298 86 308 261 200 147 105
127 121 118 116 109 103 95 85 75 68 60 53 45 34 25 12 1 350 344 336 330 324 315 311 308 304 299 294 290 289 293 293 278 280 272 274 5 52 287 255 221 195 154
127 125 120 122 109 101 93 86 79 69 59 49 37 27 17 9 0 353 347 337 327 321 318 312 303 296 294 293 286 279 281 284 266 270 268 267 70 314 273 255 234 208 187
132 131 126 128 129 122 99 83 76 59 47 38 25 11 6 360 353 347 338 336 327 318 316 314 306 295 287 283 280 271 266 271 276 266 265 260 102 270 260 248 236 216 202
147 144 136 128 119 119 120 106 72 50 38 30 23 16 358 305 278 307 300 345 329 319 316 314 309 301 288 277 276 268 258 251 249 256 255 228 121 260 250 244 234 218 201
167 167 162 157 144 131 91 102 124 108 53 317 114 69 301 324 344 306 13 359 335 328 323 318 313 307 289 254 248 255 249 246 235 252 254 63 280 260 243 238 227 214 202
178 180 179 183 171 180 227 36 305 316 5 338 353 353 346 353 344 330 25 311 322 316 289 287 292 270 260 252 215 218 244 241 239 236 232 132 268 257 242 230 217 208 200
176 178 191 199 194 220 247 301 326 328 334 328 349 343 335 336 329 331 328 306 300 291 296 288 272 280 279 272 273 254 252 258 246 241 220 129 271 261 245 222 209 206 203
190 189 194 200 204 226 285 307 296 314 329 343 349 341 342 343 331 341 325 333 321 315 314 299 291 284 280 267 256 255 244 245 247 248 211 127 276 263 250 221 206 202 204
200 201 199 205 218 221 259 285 291 323 327 354 350 336 343 336 338 335 326 329 319 321 310 299 289 288 284 275 262 258 257 251 250 247 217 167 254 265 254 227 202 195 203
206 205 193 204 208 222 236 267 321 330 324 332 351 346 340 340 337 332 326 328 327 322 319 303 295 289 278 274 266 254 252 257 251 245 247 200 190 208 219 203 190 196 205
207 201 193 200 202 215 250 308 322 313 334 344 353 337 338 341 334 334 331 333 335 327 316 305 301 290 276 268 258 256 252 253 253 242 243 237 200 172 162 158 163 190 207
209 202 186 191 194 191 191 214 243 309 339 335 342 339 339 342 341 340 337 339 336 327 322 314 302 294 281 275 267 255 247 238 247 241 230 218 220 190 154 141 153 176 197
210 205 190 188 186 181 175 185 222 271 301 319 334 344 344 348 346 350 346 339 338 334 331 324 326 309 295 286 264 243 245 244 238 236 220 203 188 187 169 152 165 173 178
207 205 193 181 184 170 173 191 200 248 272 297 324 347 349 345 351 350 343 349 346 338 338 335 328 313 303 290 272 240 226 225 215 219 229 206 184 178 181 183 186 179 176
199 200 194 187 181 175 178 207 236 257 267 267 306 339 334 343 348 352 344 352 345 344 340 339 330 315 312 311 271 223 203 207 195 181 214 212 180 174 185 194 207 198 177
197 199 197 193 186 185 187 201 229 288 287 296 274 271 311 332 343 345 347 344 349 341 344 345 340 327 332 332 299 259 204 183 182 171 182 182 173 184 201 205 193 198 199
201 202 200 194 188 187 181 180 194 217 248 238 249 271 302 318 330 337 344 343 344 343 352 345 341 339 330 329 329 300 281 213 156 154 148 145 139 181 211 207 198 199 193
204 202 201 193 193 188 185 199 220 249 280 298 298 292 280 286 309 324 337 339 341 347 348 349 357 338 329 335 337 320 317 323 243 167 147 134 122 133 182 191 199 200 188
195 194 198 192 192 189 198 200 221 239 264 277 274 278 285 293 297 307 325 332 339 345 351 351 351 347 342 342 339 333 313 298 282 242 161 145 131 107 103 148 201 190 180
181 185 190 190 193 193 202 210 222 235 243 255 262 280 281 284 287 293 307 321 332 343 347 345 346 351 348 346 334 338 332 325 333 299 183 152 141 122 106 79 209 133 104
Height
1523 1523 1523 1524 1526 1526 1527 1528 1528 1529 1529 1529 1529 1530 1530 1530 1530 1530 1530 1530 1531 1530 1530 1530 1530 1530 1529 1529 1529 1528 1528 1527 1527 1526 1526 1525 1525 1524 1524 1524 1523 1524 1522
1524 1524 1524 1526 1527 1527 1528 1528 1529 1529 1530 1530 1530 1530 1530 1530 1531 1531 1531 1531 1531 1531 1531 1530 1530 1530 1530 1529 1529 1529 1528 1528 1527 1527 1527 1526 1526 1525 1525 1525 1524 1524 1523
1525 1526 1526 1527 1527 1528 1529 1529 1529 1530 1530 1530 1530 1530 1530 1530 1530 1530 1531 1531 1531 1531 1530 1530 1530 1530 1530 1530 1529 1529 1529 1528 1528 1527 1527 1528 1528 1526 1526 1526 1525 1525 1525
1526 1527 1528 1528 1528 1529 1529 1530 1530 1530 1530 1530 1530 1530 1530 1530 1530 1530 1530 1530 1530 1530 1530 1530 1530 1530 1530 1529 1529 1529 1528 1528 1528 1528 1529 1529 1529 1527 1527 1527 1526 1526 1526
1527 1528 1528 1529 1529 1530 1530 1530 1530 1530 1530 1530 1529 1529 1529 1529 1529 1529 1529 1529 1529 1529 1529 1529 1529 1529 1529 1529 1529 1528 1528 1528 1528 1528 1529 1528 1528 1527 1527 1527 1527 1527 1527
1529 1530 1530 1530 1530 1530 1530 1530 1530 1530 1529 1529 1529 1529 1529 1528 1528 1528 1528 1528 1528 1528 1528 1528 1528 1528 1528 1528 1528 1528 1528 1527 1528 1529 1528 1528 1528 1527 1527 1528 1527 1528 1528
1530 1531 1531 1531 1531 1531 1531 1531 1530 1530 1529 1529 1529 1528 1528 1528 1527 1527 1527 1527 1527 1527 1526 1526 1526 1526 1526 1527 1527 1526 1526 1527 1527 1528 1528 1528 1528 1527 1527 1528 1528 1528 1528
1531 1532 1532 1531 1532 1532 1531 1531 1531 1530 1529 1529 1528 1528 1528 1527 1527 1526 1526 1525 1525 1525 1525 1525 1524 1524 1524 1525 1525 1525 1525 1525 1527 1528 1528 1528 1527 1527 1527 1528 1528 1528 1529
1532 1533 1534 1534 1533 1532 1532 1532 1531 1531 1530 1529 1529 1528 1527 1527 1526 1525 1525 1524 1524 1523 1523 1523 1522 1522 1522 1522 1523 1523 1523 1524 1525 1527 1527 1527 1526 1526 1527 1527 1528 1528 1529
1533 1534 1534 1535 1535 1535 1534 1532 1532 1531 1530 1530 1529 1528 1527 1526 1526 1525 1524 1523 1522 1522 1521 1521 1521 1520 1520 1520 1521 1521 1522 1523 1524 1525 1526 1526 1525 1526 1526 1527 1527 1528 1529
1534 1535 1535 1535 1535 1535 1535 1534 1533 1532 1531 1530 1530 1528 1527 1528 1527 1526 1524 1522 1521 1521 1520 1519 1519 1518 1518 1519 1519 1519 1520 1522 1523 1523 1524 1524 1524 1525 1525 1526 1527 1528 1528
1535 1535 1536 1536 1536 1536 1535 1534 1533 1533 1532 1531 1530 1529 1528 1527 1526 1525 1523 1521 1520 1519 1519 1518 1517 1517 1517 1518 1518 1517 1519 1520 1521 1521 1522 1521 1522 1523 1524 1525 1526 1527 1528
1535 1535 1536 1536 1536 1536 1535 1535 1534 1533 1532 1531 1530 1529 1528 1527 1526 1525 1523 1522 1521 1519 1519 1517 1517 1517 1516 1517 1516 1517 1517 1518 1519 1520 1520 1520 1521 1522 1523 1524 1525 1526 1527
1535 1535 1536 1536 1536 1536 1535 1534 1533 1533 1532 1531 1530 1529 1528 1527 1525 1524 1523 1521 1520 1518 1517 1516 1515 1515 1515 1515 1515 1515 1515 1516 1517 1517 1518 1518 1519 1520 1521 1523 1524 1525 1526
1534 1534 1535 1535 1536 1535 1534 1533 1533 1532 1532 1531 1529 1529 1527 1526 1525 1523 1522 1520 1519 1517 1516 1515 1514 1514 1513 1513 1513 1513 1513 1514 1514 1515 1516 1516 1517 1519 1520 1521 1523 1524 1525
1533 1534 1534 1534 1535 1534 1534 1534 1533 1532 1531 1530 1529 1528 1527 1526 1524 1522 1521 1519 1518 1516 1514 1513 1513 1512 1511 1511 1511 1511 1511 1512 1512 1513 1514 1515 1516 1517 1518 1520 1521 1523 1524
1532 1533 1533 1534 1534 1534 1534 1533 1532 1531 1531 1530 1529 1528 1527 1525 1523 1522 1520 1518 1516 1515 1513 1512 1511 1510 1509 1509 1509 1509 1510 1509 1510 1511 1512 1513 1514 1515 1517 1518 1520 1521 1523
1531 1532 1532 1533 1533 1533 1533 1532 1532 1531 1530 1529 1528 1527 1526 1525 1523 1521 1519 1517 1515 1514 1512 1511 1509 1508 1508 1508 1508 1508 1508 1508 1508 1509 1510 1511 1513 1514 1515 1517 1519 1520 1522
1529 1530 1531 1532 1532 1532 1532 1531 1531 1531 1529 1529 1528 1527 1525 1524 1522 1521 1518 1516 1514 1513 1511 1510 1508 1507 1506 1506 1506 1506 1506 1507 1507 1508 1509 1510 1511 1512 1514 1516 1517 1519 1521
1527 1528 1530 1531 1531 1531 1531 1531 1531 1530 1529 1528 1527 1526 1524 1523 1522 1520 1518 1516 1514 1512 1510 1509 1507 1506 1505 1505 1505 1505 1505 1505 1506 1506 1507 1508 1510 1511 1513 1514 1516 1518 1519
1524 1526 1528 1529 1530 1530 1531 1531 1531 1530 1529 1528 1527 1525 1523 1522 1521 1520 1518 1516 1513 1512 1510 1509 1507 1506 1505 1504 1504 1504 1504 1505 1505 1506 1506 1507 1509 1510 1511 1513 1515 1517 1518
1523 1525 1527 1528 1529 1530 1530 1530 1530 1529 1529 1527 1526 1524 1523 1522 1521 1520 1518 1516 1514 1511 1510 1508 1506 1505 1505 1504 1504 1504 1504 1505 1504 1505 1505 1506 1508 1509 1510 1512 1514 1515 1517
1521 1523 1525 1527 1527 1528 1529 1529 1528 1528 1527 1527 1526 1524 1523 1522 1520 1519 1517 1516 1513 1512 1510 1508 1506 1505 1505 1504 1503 1504 1504 1503 1504 1505 1505 1506 1507 1508 1509 1511 1513 1514 1516
1519 1521 1524 1525 1526 1527 1527 1528 1528 1528 1528 1527 1526 1524 1523 1521 1520 1518 1517 1515 1514 1512 1510 1508 1507 1505 1504 1504 1503 1503 1503 1503 1504 1504 1505 1505 1506 1507 1508 1510 1511 1513 1515
1517 1519 1521 1523 1524 1525 1526 1526 1526 1526 1526 1526 1524 1523 1523 1521 1520 1518 1517 1515 1514 1512 1510 1508 1507 1506 1505 1504 1504 1503 1503 1503 1503 1504 1504 1505 1506 1506 1507 1509 1510 1512 1513
1516 1517 1519 1520 1522 1523 1524 1524 1525 1525 1525 1524 1524 1523 1522 1521 1520 1518 1516 1515 1514 1512 1510 1508 1507 1506 1505 1504 1503 1503 1503 1503 1503 1503 1504 1504 1505 1506 1507 1508 1509 1511 1512